SM6PGP-2 Weather Reports


Display with metric or nautical units.
time (UTC)temp
F
wind
direction
speed
MPH
gust
MPH
rain 1hr
in
rain 24hr
in
rain mn
in
humidity
%
barometer
mb
20210119213706 34 135 9.0 10.0 0.00 0.00 0.03 89 996.9
20210119213202 34 135 9.0 9.0 0.00 0.00 0.03 89 997.0
20210119212655 35 166 6.0 13.0 0.00 0.00 0.03 89 997.0
20210119212152 34 144 13.0 15.0 0.00 0.00 0.03 89 997.1
20210119211645 34 135 6.0 11.0 0.00 0.00 0.03 90 997.1
20210119211140 34 180 7.0 10.0 0.00 0.00 0.03 89 997.1
20210119210635 34 135 9.0 15.0 0.00 0.00 0.03 90 997.1
20210119210131 34 135 11.0 16.0 0.00 0.00 0.03 89 997.2
20210119205624 34 180 8.0 13.0 0.00 0.00 0.03 89 997.1
20210119205120 34 162 6.0 13.0 0.00 0.00 0.03 89 997.2
20210119204623 34 135 9.0 17.0 0.00 0.00 0.03 90 997.2
20210119204112 34 135 13.0 19.0 0.00 0.00 0.03 89 997.2
20210119203603 34 175 13.0 13.0 0.00 0.00 0.03 89 997.3
20210119203059 34 148 13.0 15.0 0.00 0.00 0.03 91 997.2
20210119202600 34 180 7.0 13.0 0.00 0.00 0.03 89 997.2
20210119202050 34 180 7.0 10.0 0.00 0.00 0.03 89 997.2
20210119201543 34 135 6.0 8.0 0.00 0.00 0.03 89 997.3
20210119201037 34 135 11.0 17.0 0.00 0.00 0.03 89 997.3
20210119200532 34 135 10.0 14.0 0.00 0.00 0.03 89 997.3
20210119200047 34 135 11.0 17.0 0.00 0.00 0.03 88 997.3
20210119195522 34 135 9.0 13.0 0.00 0.00 0.03 88 997.3
20210119195032 34 135 10.0 13.0 0.00 0.00 0.03 91 997.3
20210119194517 34 144 13.0 13.0 0.00 0.00 0.03 89 997.4
20210119194020 34 139 10.0 15.0 0.00 0.00 0.03 89 997.3
20210119193504 34 135 11.0 16.0 0.00 0.00 0.03 89 997.4
20210119193000 34 139 6.0 15.0 0.00 0.00 0.03 90 997.3
20210119192451 34 135 7.0 13.0 0.00 0.00 0.03 89 997.2
20210119191948 34 171 11.0 17.0 0.00 0.00 0.03 89 997.2
20210119191440 34 126 5.0 11.0 0.00 0.00 0.03 89 997.4
20210119190938 34 135 14.0 14.0 0.00 0.00 0.03 89 997.2
20210119190431 34 180 6.0 10.0 0.00 0.00 0.03 89 997.2
20210119185925 34 135 15.0 15.0 0.00 0.00 0.03 90 997.1
20210119185419 34 135 7.0 12.0 0.00 0.00 0.03 89 997.2
20210119184914 34 180 5.0 13.0 0.00 0.00 0.03 89 997.3
20210119184409 34 144 9.0 11.0 0.00 0.00 0.03 89 997.2
20210119183904 34 180 8.0 8.0 0.00 0.00 0.03 89 997.2
20210119183400 34 180 10.0 10.0 0.00 0.00 0.03 90 997.1
20210119182853 34 180 7.0 9.0 0.00 0.00 0.03 88 997.2
20210119182348 34 135 7.0 8.0 0.00 0.00 0.03 88 997.2
20210119181847 34 180 5.0 9.0 0.00 0.00 0.03 89 997.3
20210119181340 34 112 6.0 12.0 0.00 0.00 0.03 88 997.4
20210119180833 34 135 7.0 17.0 0.00 0.00 0.03 89 997.2
20210119180331 34 135 16.0 17.0 0.00 0.00 0.03 88 997.2
20210119175831 34 135 6.0 14.0 0.00 0.00 0.03 89 997.4
20210119175317 34 135 6.0 13.0 0.00 0.00 0.03 89 997.3
20210119174812 34 180 10.0 18.0 0.00 0.00 0.02 89 997.4
20210119174308 35 135 10.0 18.0 0.00 0.00 0.02 90 997.5
20210119173801 35 148 14.0 21.0 0.00 0.00 0.02 89 997.6
20210119173256 35 157 14.0 20.0 0.00 0.00 0.02 88 997.5
20210119172752 35 135 13.0 24.0 0.00 0.00 0.02 89 997.5
20210119172246 35 135 14.0 20.0 0.00 0.00 0.02 89 997.7
20210119171741 35 144 10.0 19.0 0.00 0.00 0.02 90 997.6
20210119171235 35 153 13.0 13.0 0.00 0.00 0.02 90 997.5
20210119170733 35 135 8.0 16.0 0.00 0.00 0.02 89 997.6
20210119170225 35 180 10.0 17.0 0.00 0.00 0.02 89 997.6
20210119165726 35 135 11.0 19.0 0.00 0.00 0.02 89 997.7
20210119165214 35 180 6.0 16.0 0.00 0.00 0.02 91 997.8
20210119164709 35 180 6.0 12.0 0.00 0.00 0.02 89 997.8
20210119164207 35 180 4.0 7.0 0.00 0.00 0.02 89 997.8
20210119163700 35 180 2.0 7.0 0.00 0.00 0.02 89 997.7
20210119163154 35 180 2.0 8.0 0.00 0.00 0.02 89 997.7
20210119162649 35 157 7.0 9.0 0.00 0.00 0.02 89 997.7
20210119162143 35 144 5.0 10.0 0.00 0.00 0.02 89 997.6
20210119161638 35 180 4.0 9.0 0.00 0.00 0.02 90 997.7
20210119161135 35 157 2.0 9.0 0.00 0.00 0.02 89 997.8
20210119160628 35 157 5.0 10.0 0.00 0.00 0.02 90 997.7
20210119160123 35 135 4.0 11.0 0.00 0.00 0.02 90 997.7
20210119155617 35 180 6.0 7.0 0.00 0.00 0.02 89 997.8
20210119155113 35 180 6.0 9.0 0.00 0.00 0.02 91 997.8
20210119154607 35 135 4.0 14.0 0.00 0.00 0.02 89 997.9
20210119154103 35 135 4.0 10.0 0.00 0.00 0.02 89 997.9
20210119153558 35 94 10.0 10.0 0.00 0.00 0.02 89 998.0
20210119153054 35 135 8.0 10.0 0.00 0.00 0.02 89 998.0
20210119152547 35 108 5.0 9.0 0.00 0.00 0.02 89 998.0
20210119152043 35 135 8.0 9.0 0.00 0.00 0.02 89 998.0
20210119151536 35 90 4.0 9.0 0.00 0.00 0.02 89 998.1
20210119151030 35 180 7.0 7.0 0.00 0.00 0.01 91 998.2
20210119150525 35 180 4.0 8.0 0.00 0.00 0.01 89 998.1
20210119150024 35 180 3.0 8.0 0.00 0.00 0.01 89 998.1
20210119145526 35 180 6.0 8.0 0.00 0.00 0.01 89 998.1
20210119145019 35 90 6.0 6.0 0.00 0.00 0.01 89 998.1
20210119144519 35 85 5.0 13.0 0.00 0.00 0.01 89 998.1
20210119143959 35 135 5.0 13.0 0.00 0.00 0.00 89 998.2
20210119143455 35 108 11.0 13.0 0.00 0.00 0.00 89 998.1
20210119142949 35 135 6.0 16.0 0.00 0.00 0.00 89 998.2
20210119142444 35 126 12.0 14.0 0.00 0.00 0.00 89 998.2
20210119141940 35 135 5.0 18.0 0.00 0.00 0.00 89 998.2
20210119141434 35 139 16.0 20.0 0.00 0.00 0.00 89 998.3
20210119140931 35 157 10.0 19.0 0.00 0.00 0.00 89 998.2
20210119140423 35 162 14.0 18.0 0.00 0.00 0.00 90 998.4
20210119135918 36 135 8.0 25.0 0.00 0.00 0.00 89 998.4
20210119135412 36 135 15.0 25.0 0.00 0.00 0.00 89 998.4
20210119134907 35 135 10.0 27.0 0.00 0.00 0.00 91 998.3
20210119134405 35 135 17.0 17.0 0.00 0.00 0.00 90 998.3
20210119133859 35 180 8.0 20.0 0.00 0.00 0.00 89 998.4
20210119133353 35 135 11.0 16.0 0.00 0.00 0.00 89 998.4
20210119132846 35 148 15.0 15.0 0.00 0.00 0.00 89 998.3
20210119132341 35 135 9.0 14.0 0.00 0.00 0.16 89 998.4
20210119131837 35 139 14.0 15.0 0.00 0.00 0.16 90 998.5
20210119131331 35 180 12.0 13.0 0.00 0.00 0.16 89 998.6
20210119130826 35 130 8.0 13.0 0.00 0.00 0.16 91 998.7
20210119130321 35 144 15.0 15.0 0.00 0.00 0.16 89 998.8
20210119125816 35 135 9.0 15.0 0.00 0.00 0.16 89 998.7
20210119125311 35 135 7.0 12.0 0.00 0.00 0.16 90 998.9
20210119124806 35 135 9.0 19.0 0.00 0.00 0.16 89 998.9
20210119124302 35 135 11.0 19.0 0.00 0.00 0.16 89 998.9
20210119123759 35 135 10.0 15.0 0.00 0.00 0.16 89 998.9
20210119123253 35 135 10.0 15.0 0.00 0.00 0.16 90 999.0
20210119122826 35 135 10.0 16.0 0.00 0.00 0.16 90 998.9
20210119122243 35 135 11.0 12.0 0.00 0.00 0.16 90 999.0
20210119121735 35 135 6.0 9.0 0.00 0.00 0.16 90 999.1
20210119121231 35 130 10.0 13.0 0.00 0.00 0.16 86 999.3
20210119120725 35 139 6.0 15.0 0.00 0.00 0.16 89 999.3
20210119120219 35 139 16.0 16.0 0.00 0.00 0.16 91 999.3
20210119115714 35 135 9.0 12.0 0.00 0.00 0.16 90 999.5
20210119115213 35 135 14.0 17.0 0.00 0.00 0.16 90 999.5
20210119114703 35 135 11.0 14.0 0.00 0.00 0.16 90 999.5
20210119114158 35 135 9.0 18.0 0.00 0.00 0.16 90 999.7
20210119113659 35 148 14.0 16.0 0.00 0.00 0.16 90 999.7
20210119113149 35 144 17.0 21.0 0.00 0.00 0.16 90 999.6
20210119112643 35 157 11.0 20.0 0.00 0.00 0.16 90 999.7
20210119112138 35 166 12.0 18.0 0.00 0.00 0.16 90 999.8
20210119111637 35 135 16.0 21.0 0.00 0.00 0.15 90 999.8
20210119111128 35 135 13.0 15.0 0.00 0.00 0.15 91 999.9
20210119110623 35 180 17.0 17.0 0.00 0.00 0.14 92 999.9
20210119110116 35 139 11.0 12.0 0.00 0.00 0.14 90 1000.0
20210119105611 35 148 10.0 15.0 0.00 0.00 0.14 91 999.9
20210119105109 35 144 7.0 14.0 0.00 0.00 0.14 90 1000.0
20210119104608 35 180 10.0 18.0 0.00 0.00 0.14 91 1000.1
20210119104055 35 162 11.0 13.0 0.00 0.00 0.14 90 1000.0
20210119103555 35 157 14.0 17.0 0.00 0.00 0.14 90 1000.1
20210119103050 35 135 11.0 18.0 0.00 0.00 0.14 90 1000.0
20210119102539 35 153 13.0 15.0 0.00 0.00 0.14 91 1000.1
20210119102039 35 180 10.0 14.0 0.00 0.00 0.14 92 1000.2
20210119101529 35 180 10.0 16.0 0.00 0.00 0.13 90 1000.3
20210119101031 35 135 12.0 16.0 0.00 0.00 0.13 90 1000.4
20210119100527 35 180 7.0 13.0 0.00 0.00 0.13 91 1000.5
20210119100029 34 135 12.0 13.0 0.00 0.00 0.13 90 1000.5
20210119095524 34 135 6.0 13.0 0.00 0.00 0.13 91 1000.5
20210119095021 34 135 7.0 12.0 0.00 0.00 0.13 90 1000.5
20210119094457 34 135 4.0 10.0 0.00 0.00 0.13 90 1000.6
20210119093959 34 135 4.0 8.0 0.00 0.00 0.12 91 1000.7
20210119093447 34 135 2.0 8.0 0.00 0.00 0.12 91 1000.7
20210119092947 34 157 4.0 8.0 0.00 0.00 0.12 91 1000.9
20210119092437 34 135 3.0 7.0 0.00 0.00 0.12 90 1001.0
20210119091931 34 135 2.0 5.0 0.00 0.00 0.12 90 1000.9
20210119091429 34 135 4.0 7.0 0.00 0.00 0.11 90 1001.0
20210119090929 34 135 8.0 11.0 0.00 0.00 0.11 90 1001.0
20210119090417 34 135 5.0 8.0 0.00 0.00 0.11 91 1001.1
20210119085917 34 180 6.0 10.0 0.00 0.00 0.11 90 1001.1
20210119085405 34 180 8.0 11.0 0.00 0.00 0.11 91 1001.3
20210119084903 34 180 10.0 15.0 0.00 0.00 0.11 90 1001.3
20210119084355 35 135 11.0 16.0 0.00 0.00 0.11 91 1001.4
20210119083854 35 166 13.0 21.0 0.00 0.00 0.11 91 1001.4
20210119083345 35 139 17.0 17.0 0.00 0.00 0.11 89 1001.5
20210119082841 35 144 13.0 16.0 0.00 0.00 0.09 91 1001.4
20210119082337 35 144 15.0 17.0 0.00 0.00 0.09 91 1001.5
20210119081830 35 135 11.0 19.0 0.00 0.00 0.09 91 1001.6
20210119081325 35 171 15.0 17.0 0.00 0.00 0.09 87 1001.5
20210119080819 35 135 6.0 19.0 0.00 0.00 0.09 91 1001.5
20210119080319 35 139 13.0 19.0 0.00 0.00 0.09 91 1001.7
20210119075812 35 139 13.0 20.0 0.00 0.00 0.09 91 1001.6
20210119075319 35 135 20.0 24.0 0.00 0.00 0.08 91 1001.6
20210119074758 35 135 16.0 22.0 0.00 0.00 0.08 91 1001.8
20210119074254 35 139 16.0 17.0 0.00 0.00 0.08 91 1001.8
20210119073748 35 135 9.0 14.0 0.00 0.00 0.08 92 1001.9
20210119073242 35 139 14.0 16.0 0.00 0.00 0.08 91 1001.9
20210119072737 35 171 10.0 15.0 0.00 0.00 0.07 91 1002.0
20210119072232 35 144 12.0 17.0 0.00 0.00 0.07 90 1002.0
20210119071727 35 157 11.0 20.0 0.00 0.00 0.07 91 1002.1
20210119071223 35 139 19.0 19.0 0.00 0.00 0.07 91 1002.1
20210119070716 35 130 11.0 19.0 0.00 0.00 0.07 91 1002.2
20210119065705 35 135 14.0 20.0 0.00 0.00 0.07 91 1002.2
20210119065158 35 144 14.0 14.0 0.00 0.00 0.07 91 1002.4
20210119064653 35 139 10.0 16.0 0.00 0.00 0.07 92 1002.4
20210119064152 35 175 12.0 17.0 0.00 0.00 0.07 91 1002.4
20210119063642 35 180 8.0 12.0 0.00 0.00 0.07 92 1002.5
20210119063141 35 157 8.0 12.0 0.00 0.00 0.07 91 1002.5
20210119062633 35 139 8.0 12.0 0.00 0.00 0.07 91 1002.6
20210119062126 35 162 13.0 17.0 0.00 0.00 0.07 91 1002.6
20210119061625 35 175 11.0 19.0 0.00 0.00 0.07 91 1002.6
20210119061116 35 135 10.0 15.0 0.00 0.00 0.07 91 1002.6
20210119060611 35 135 9.0 12.0 0.00 0.00 0.07 91 1002.7
20210119060110 35 135 9.0 13.0 0.00 0.00 0.07 91 1002.7
20210119055601 35 135 5.0 14.0 0.00 0.00 0.07 92 1002.8
20210119055056 35 135 7.0 13.0 0.00 0.00 0.07 91 1002.8
20210119054554 35 166 7.0 8.0 0.00 0.00 0.07 91 1002.8
20210119054047 35 135 8.0 11.0 0.00 0.00 0.07 92 1003.0
20210119053541 35 135 9.0 15.0 0.00 0.00 0.07 91 1003.0
20210119053043 35 180 7.0 16.0 0.00 0.00 0.07 91 1003.1
20210119052530 35 180 7.0 9.0 0.00 0.00 0.07 90 1003.0
20210119052025 35 135 16.0 19.0 0.00 0.00 0.07 91 1003.3
20210119051523 35 180 13.0 16.0 0.00 0.00 0.07 91 1003.3
20210119051018 35 144 10.0 18.0 0.00 0.00 0.07 91 1003.3
20210119050516 35 135 8.0 15.0 0.00 0.00 0.07 91 1003.3
20210119050023 35 180 9.0 14.0 0.00 0.00 0.07 91 1003.5
20210119045512 35 135 8.0 13.0 0.00 0.00 0.07 91 1003.5
20210119044953 35 180 6.0 10.0 0.00 0.00 0.07 91 1003.5
20210119044448 35 135 12.0 13.0 0.00 0.00 0.07 91 1003.5
20210119043943 35 180 8.0 12.0 0.00 0.00 0.07 91 1003.4
20210119043439 35 135 8.0 9.0 0.00 0.00 0.07 90 1003.6
20210119042933 35 135 9.0 13.0 0.00 0.00 0.07 92 1003.6
20210119042427 35 135 9.0 10.0 0.00 0.00 0.07 90 1003.5
20210119041922 35 135 9.0 13.0 0.00 0.00 0.07 91 1003.5
20210119041427 35 135 6.0 11.0 0.00 0.00 0.07 90 1003.6
20210119040911 35 135 6.0 12.0 0.00 0.00 0.07 91 1003.7
20210119040409 35 175 9.0 10.0 0.00 0.00 0.07 90 1003.8
20210119035901 35 157 8.0 11.0 0.00 0.00 0.07 91 1003.9
20210119035356 35 135 4.0 10.0 0.00 0.00 0.07 91 1003.9
20210119034851 35 171 7.0 10.0 0.00 0.00 0.07 91 1004.0
20210119034352 35 148 8.0 11.0 0.00 0.00 0.07 91 1004.1
20210119033842 35 180 6.0 12.0 0.00 0.00 0.07 91 1004.1
20210119033339 35 144 8.0 13.0 0.00 0.00 0.07 90 1004.2
20210119032830 35 153 10.0 14.0 0.00 0.00 0.07 91 1004.2
20210119032329 35 135 7.0 13.0 0.00 0.00 0.07 91 1004.3
20210119031819 35 166 11.0 13.0 0.00 0.00 0.07 91 1004.3
20210119031320 35 162 7.0 11.0 0.00 0.00 0.07 90 1004.3
20210119030811 35 135 7.0 13.0 0.00 0.00 0.07 92 1004.2
20210119030305 35 153 7.0 9.0 0.00 0.00 0.07 90 1004.4
20210119025802 35 144 8.0 13.0 0.00 0.00 0.07 90 1004.5
20210119025258 35 180 6.0 10.0 0.00 0.00 0.07 90 1004.4
20210119024748 35 175 9.0 10.0 0.00 0.00 0.07 91 1004.5
20210119024243 35 135 8.0 10.0 0.00 0.00 0.07 90 1004.4
20210119023739 35 148 9.0 10.0 0.00 0.00 0.07 91 1004.4
20210119023234 35 135 8.0 10.0 0.00 0.00 0.07 90 1004.7
20210119022741 35 135 10.0 11.0 0.00 0.00 0.07 91 1004.4
20210119022224 35 166 9.0 10.0 0.00 0.00 0.07 91 1004.6
20210119021719 35 135 8.0 11.0 0.00 0.00 0.07 92 1004.7
20210119021213 35 135 8.0 13.0 0.00 0.00 0.07 90 1004.8
20210119020707 35 139 10.0 12.0 0.00 0.00 0.07 90 1004.9
20210119020204 35 153 7.0 14.0 0.00 0.00 0.07 90 1004.9
20210119015656 35 180 7.0 13.0 0.00 0.00 0.07 91 1005.0
20210119015151 35 157 7.0 11.0 0.00 0.00 0.07 90 1005.1
20210119014647 35 171 8.0 12.0 0.00 0.00 0.07 91 1005.0
20210119014142 35 153 8.0 10.0 0.00 0.00 0.07 90 1005.1
20210119013638 35 148 8.0 9.0 0.00 0.00 0.07 90 1005.1
20210119013130 35 171 7.0 10.0 0.00 0.00 0.07 91 1005.1
20210119012636 34 180 6.0 8.0 0.00 0.00 0.07 90 1005.0
20210119012122 34 180 7.0 10.0 0.00 0.00 0.07 91 1005.1
20210119011616 34 180 7.0 10.0 0.00 0.00 0.07 90 1005.3
20210119011109 34 180 5.0 11.0 0.00 0.00 0.07 90 1005.3
20210119010606 34 180 7.0 14.0 0.00 0.00 0.07 90 1005.4
20210119010059 34 180 9.0 15.0 0.00 0.00 0.07 91 1005.4
20210119005554 34 180 13.0 20.0 0.00 0.00 0.07 91 1005.4
20210119005049 34 166 15.0 15.0 0.00 0.00 0.07 90 1005.4
20210119004547 34 180 10.0 13.0 0.00 0.00 0.07 90 1005.5
20210119004050 34 180 12.0 12.0 0.00 0.00 0.07 90 1005.7
20210119003537 34 180 8.0 12.0 0.00 0.00 0.07 90 1005.8
20210119003048 34 166 9.0 14.0 0.00 0.00 0.07 89 1005.7
20210119002522 34 180 14.0 15.0 0.00 0.00 0.07 90 1005.8
20210119002027 34 180 9.0 13.0 0.00 0.00 0.07 90 1005.8
20210119001517 34 157 17.0 17.0 0.00 0.00 0.07 90 1005.8
20210119001020 34 171 14.0 14.0 0.00 0.00 0.07 89 1005.9
20210119000515 34 180 8.0 14.0 0.00 0.00 0.07 92 1005.9
20210118235956 34 180 7.0 12.0 0.00 0.00 0.07 90 1006.0
20210118235452 34 180 4.0 17.0 0.00 0.00 0.07 90 1006.1
20210118234947 34 157 22.0 23.0 0.00 0.00 0.07 90 1005.9
20210118234442 34 180 13.0 30.0 0.00 0.00 0.07 89 1006.2
20210118233946 33 180 15.0 22.0 0.00 0.00 0.07 91 1006.1
20210118233435 33 180 12.0 23.0 0.00 0.00 0.07 89 1006.1
20210118232930 33 180 11.0 16.0 0.00 0.00 0.07 90 1006.1
20210118232430 33 180 8.0 14.0 0.00 0.00 0.07 90 1006.4
20210118231915 33 180 13.0 21.0 0.00 0.00 0.07 90 1006.4
20210118231410 33 180 14.0 18.0 0.00 0.00 0.07 89 1006.4
20210118230908 33 225 12.0 18.0 0.00 0.00 0.07 89 1006.4
20210118230359 33 180 23.0 23.0 0.00 0.00 0.07 90 1006.4
20210118225854 33 180 8.0 17.0 0.00 0.00 0.07 89 1006.4
20210118225349 33 180 7.0 16.0 0.00 0.00 0.06 89 1006.4
20210118224847 33 171 9.0 22.0 0.00 0.00 0.06 90 1006.4
20210118224338 33 157 10.0 17.0 0.00 0.00 0.06 90 1006.4
20210118223833 33 180 12.0 18.0 0.00 0.00 0.06 89 1006.5
20210118223329 33 180 14.0 17.0 0.00 0.00 0.06 89 1006.3
20210118222824 33 180 16.0 19.0 0.00 0.00 0.06 90 1006.4
20210118222318 33 180 9.0 16.0 0.00 0.00 0.06 89 1006.6
20210118221815 33 180 6.0 12.0 0.00 0.00 0.05 89 1006.6
20210118221311 33 175 8.0 14.0 0.00 0.00 0.05 89 1006.7
20210118220803 33 180 18.0 18.0 0.00 0.00 0.05 88 1006.6
20210118220257 33 180 12.0 20.0 0.00 0.00 0.05 89 1006.5
20210118215752 33 180 10.0 13.0 0.00 0.00 0.05 89 1006.6
20210118215246 33 139 17.0 17.0 0.00 0.00 0.05 89 1006.5
20210118214741 33 135 7.0 13.0 0.00 0.00 0.05 89 1006.6
20210118214236 33 166 6.0 13.0 0.00 0.00 0.05 89 1006.6